Regional Weather Roundup
Issued by NWS Burlington, VT

Home | Current Version | Previous Version | Text Only | Print | Product List | Glossary On
Versions: 1 2 3 4 5 6 7 8 9 10 11 12 13 14 15 16 17 18 19 20 21 22 23 24 25 26 27 28 29 30 31 32 33 34 35 36 37 38 39 40 41 42 43 44 45 46 47 48 49 50
000
ASUS41 KBTV 311130
RWRBTV
VERMONT REGIONAL WEATHER ROUNDUP
NATIONAL WEATHER SERVICE BURLINGTON VT
700 AM EDT TUE MAY 31 2016

NOTE: "FAIR" INDICATES FEW OR NO CLOUDS BELOW 12,000 FEET WITH NO
SIGNIFICANT WEATHER AND/OR OBSTRUCTIONS TO VISIBILITY.

* THESE REPORTS ARE NOT UNDER NWS QUALITY CONTROL AND/OR DO NOT
  REPORT WEATHER SUCH AS PRECIPITATION AND FOG.

VTZ001>019-311200-
_____VERMONT_____


CITY           SKY/WX    TMP DP  RH WIND       PRES   REMARKS
BURLINGTON     FAIR      69  51  52 SW5       29.89S
MONTPELIER     FAIR      64  48  56 VRB6      29.95R
MORRISVILLE    FAIR      64  50  60 SW12      29.90S
ST. JOHNSBURY*   N/A     61  55  81 MISG      29.87F
LYNDONVILLE*   FAIR      63  55  74 CALM      29.92R
RUTLAND*       FAIR      67  49  52 W9        29.94S
SPRINGFIELD    FAIR      65  54  67 CALM      29.92S
HIGHGATE*      FAIR      64  53  66 SW6       29.88R
NEWPORT*       PTSUNNY   64  53  66 S5        29.90R
BENNINGTON     FAIR      62  59  90 CALM      29.97R
GALLUP MILLS*    N/A     59 N/A N/A MISG        N/A
UNION VILLAGE*   N/A     59 N/A N/A MISG        N/A
MT. MANSFIELD*   N/A     50 N/A N/A NW31        N/A

_____LAKE CHAMPLAIN_____


CITY           SKY/WX    TMP DP  RH WIND       PRES   REMARKS
BURTON ISLAND*   N/A     64  54  68 SW9         N/A
COLCHESTER RF*   N/A     66  52  59 W8          N/A
DIAMOND ISL*     N/A     68  52  56 E5          N/A

$$

NYZ007-026>031-035-052-083-087-311200-
_____NORTHERN NEW YORK_____


CITY           SKY/WX    TMP DP  RH WIND       PRES   REMARKS
PLATTSBURGH    SUNNY     65  52  62 W5        29.88S
SARANAC LAKE   SUNNY     58  50  75 SW8       29.93R
MASSENA        SUNNY     62  52  69 SW12      29.90R
OGDENSBURG*    SUNNY     64  54  68 W9        29.93R
STARK FALLS*     N/A     32 N/A N/A W8          N/A  WCI  25
WATERTOWN      SUNNY     62  53  72 SW7       29.96R
ALBANY         MOSUNNY   65  55  70 W7        29.96R
GLENS FALLS    SUNNY     65  54  67 SW6       29.94R

$$
NHZ002-005-011-311200-
_____NEW HAMPSHIRE_____


CITY           SKY/WX    TMP DP  RH WIND       PRES   REMARKS
LEBANON        SUNNY     63  58  83 CALM      29.91R
MT WASHINGTON  FOG       45  45 100 W44G53      N/A  VSB 0
PLYMOUTH       FAIR      64  57  78 CALM      29.89S
WHITEFIELD     SUNNY     58  55  90 CALM      29.90R

$$

_____REGIONAL QUEBEC LOCATIONS_____


CITY           SKY/WX    TMP DP  RH WIND       PRES   REMARKS
MONTREAL       MOSUNNY   64  54  68 SW14G20   29.84R
QUEBEC CITY    PTSUNNY   63  57  82 SW9       29.77R
SHERBROOKE     MOSUNNY   64  54  68 SW9       29.84S

_____REGIONAL ONTARIO LOCATIONS_____


CITY           SKY/WX    TMP DP  RH WIND       PRES   REMARKS
OTTAWA         MOSUNNY   59  52  77 SW9       29.89R

______KEY______
VSB  - VISIBILITY IN MILES
WCI  - WIND CHILL INDEX
HX   - HEAT INDEX
$$
NNNN




USA.gov is the U.S. government's official web portal to all federal, state and local government web resources and services.